Ekspress AM-22

operational
NORAD ID: 28134 Int'l Des: 2003-060 Owner: KS Country: RU
HEOCIRCULAR

About Ekspress AM-22

Description loading...

Live Position

Loading 3D Globe...

Upcoming Passes

Altitude History

Altitude vs Time

uPlot chart will show altitude changes over time

Two-Line Element Set

1 28134U 03060A 26061.06937806 -.00000027 00000-0 00000+0 0 9990
2 28134 8.0125 65.2900 0009841 153.2054 227.9032 0.99357310 80976
Epoch: Mar 2, 2026 • Age: 26 hours

Current Status

Altitude 36072.8 km
Velocity 3.06 km/s
Sub-Earth Point 2.63°N, 101.98°W
Launch Date Dec 28, 2003
Age 22.1 years
Type other

Technical Details

Classification Payload
Mass 2542.00 kg
Dry Mass 2200.00 kg
Total Mass 2542.00 kg
Length 2.00 m
Diameter 2.00 m
Span 27.00 m
Shape Cyl + 2 Pan
Manufacturer NPOPMR
Bus Type Ekspress
Phase Status In Orbit
Owner/State KS/RU

Large Constellations

Loading constellations...